TimeMDT,TemperatureF,Dew PointF,Humidity,Sea Level PressureIn,VisibilityMPH,Wind Direction,Wind SpeedMPH,Gust SpeedMPH,PrecipitationIn,Events,Conditions,WindDirDegrees,DateUTC
12:56 AM,42.1,30.9,65,30.09,-9999.0,NW,3.5,-,N/A,,Unknown,320,2013-08-04 06:56:00
1:56 AM,39.9,30.9,70,30.10,-9999.0,Calm,Calm,-,N/A,,Unknown,0,2013-08-04 07:56:00
2:56 AM,39.0,30.9,73,30.10,-9999.0,Calm,Calm,-,N/A,,Unknown,0,2013-08-04 08:56:00
3:56 AM,37.9,32.0,79,30.11,-9999.0,NW,3.5,-,N/A,,Unknown,310,2013-08-04 09:56:00
4:56 AM,37.0,33.1,86,30.10,-9999.0,Calm,Calm,-,N/A,,Unknown,0,2013-08-04 10:56:00
5:56 AM,36.0,33.1,89,30.12,-9999.0,Calm,Calm,-,N/A,,Unknown,0,2013-08-04 11:56:00
6:56 AM,37.0,33.1,86,30.14,-9999.0,Calm,Calm,-,N/A,,Unknown,0,2013-08-04 12:56:00
7:56 AM,46.0,39.0,76,30.12,-9999.0,Calm,Calm,-,N/A,,Unknown,0,2013-08-04 13:56:00
8:56 AM,55.0,45.0,69,30.14,-9999.0,East,3.5,-,N/A,,Unknown,100,2013-08-04 14:56:00
9:56 AM,57.0,45.0,64,30.15,-9999.0,East,3.5,-,N/A,,Unknown,100,2013-08-04 15:56:00
10:56 AM,62.1,44.1,52,30.13,-9999.0,Calm,Calm,-,N/A,,Unknown,0,2013-08-04 16:56:00
11:56 AM,71.1,28.0,20,30.08,-9999.0,Variable,4.6,-,N/A,,Unknown,0,2013-08-04 17:56:00
12:56 PM,73.9,28.0,18,30.07,-9999.0,WSW,9.2,-,N/A,,Unknown,250,2013-08-04 18:56:00
1:56 PM,73.9,28.0,18,30.08,-9999.0,Variable,6.9,-,N/A,,Unknown,0,2013-08-04 19:56:00
2:56 PM,77.0,26.1,15,30.07,-9999.0,SW,8.1,-,N/A,,Unknown,230,2013-08-04 20:56:00
3:56 PM,75.0,24.1,15,30.08,-9999.0,West,9.2,-,N/A,,Unknown,270,2013-08-04 21:56:00
4:56 PM,75.0,24.1,15,30.06,-9999.0,WNW,8.1,-,N/A,,Unknown,290,2013-08-04 22:56:00
5:56 PM,73.9,19.9,13,30.07,-9999.0,Variable,4.6,18.4,N/A,,Unknown,0,2013-08-04 23:56:00
6:56 PM,71.1,21.9,16,30.08,-9999.0,West,8.1,-,N/A,,Unknown,260,2013-08-05 00:56:00
7:56 PM,68.0,28.0,22,30.06,-9999.0,Calm,Calm,-,N/A,,Unknown,0,2013-08-05 01:56:00
8:56 PM,59.0,33.1,38,30.08,-9999.0,Calm,Calm,-,N/A,,Unknown,0,2013-08-05 02:56:00
9:56 PM,53.1,34.0,48,30.11,-9999.0,NW,3.5,-,N/A,,Unknown,320,2013-08-05 03:56:00
10:56 PM,48.9,35.1,59,30.11,-9999.0,WNW,3.5,-,N/A,,Unknown,300,2013-08-05 04:56:00
11:56 PM,46.0,34.0,63,30.07,-9999.0,Calm,Calm,-,N/A,,Unknown,0,2013-08-05 05:56:00